Voltar ao catálogo

STARLINK-30868

AtivoComunicaçõesVLEO
NORAD 58390·PAYLOAD·🇺🇸 United States

Lançado Nov 20, 2023 de Vandenberg Space Force Base

Loading…

Próximas Passagens (próximas 24 horas)

TLE

AtualizadoSource: CelesTrak SupGP

Época: Sep 14, 2026, 22:42 UTC

1 58390C 23178S   26257.94631944 -.00033846  00000+0 -99927-3 0  2579
2 58390  53.1578 197.9149 0001291  91.5125 318.6381 15.34430361    13

Acompanhe STARLINK-30868 em tempo real com AllMySat

Download on the App Store